Regional Weather Roundup
Issued by NWS

Home | Current Version | Previous Version | Text Only | Print | Product List | Glossary On
Versions: 1 2 3 4 5 6 7 8 9 10 11 12 13 14 15 16 17 18 19 20 21 22 23 24 25 26 27 28 29 30 31 32 33 34 35 36 37 38 39 40 41 42 43 44 45 46 47 48 49 50
000
ASUS43 KTOP 170059
RWRKS

WEATHER ROUNDUP FOR KANSAS
NATIONAL WEATHER SERVICE GOODLAND KS
800 PM CDT WED AUG 16 2017

NOTE:  "FAIR" INDICATES FEW OR NO CLOUDS BELOW 12,000 FEET WITH NO
SIGNIFICANT WEATHER AND/OR OBSTRUCTIONS TO VISIBILITY.

KSZ001>006-013>018-027>032-041>047-170200-
NORTHWEST KANSAS

CITY           SKY/WX    TMP DP  RH WIND       PRES   REMARKS
GOODLAND       CLEAR     73  55  53 N12       30.03R
HAYS           CLEAR     80  62  54 NW9       29.89S
HILL CITY      CLEAR     74  61  63 N13       29.94R
RUSSELL        CLEAR     80  61  52 NW9       29.86S
$$

KSZ061>065-074>080-084>089-170200-
SOUTHWEST KANSAS

CITY           SKY/WX    TMP DP  RH WIND       PRES   REMARKS
DODGE CITY     CLEAR     82  57  42 NW9       29.92S
ELKHART          N/A     81  56  42 NW5         N/A
GARDEN CITY    CLEAR     80  55  42 NW9       29.95S
GREAT BEND     CLEAR     80  64  58 N8        29.88R
LIBERAL        CLEAR     80  61  52 NW6       29.97S
$$

KSZ066>073-081>083-090>101-170200-
SOUTHEAST KANSAS

CITY           SKY/WX    TMP DP  RH WIND       PRES   REMARKS
CHANUTE        TSTM      71  69  93 SE5       29.86R
COFFEYVILLE    CLOUDY    74  69  85 NE9       29.85R
HUTCHINSON     CLEAR     79  64  60 NW5       29.86R
MEDICINE LODGE   N/A     81  64  56 NE9       29.85R
NEWTON         CLOUDY    78  67  68 N6        29.88R
PARSONS        TSTM      71  70  96 CALM      29.86R
WICHITA INTL   CLOUDY    80  69  69 N8        29.85R
WICHITA JABRA  CLOUDY    77  71  82 N5        29.85R
WINFIELD       CLOUDY    72  72 100 CALM      29.87R
$$

KSZ007>012-019>026-033>040-048>060-102>105-170200-
NORTHEAST KANSAS

CITY           SKY/WX    TMP DP  RH WIND       PRES   REMARKS
CONCORDIA      CLEAR     78  64  61 NW8       29.84S
EMPORIA        CLOUDY    79  68  69 N5        29.85R
LAWRENCE       CLOUDY    78  75  90 SE6       29.81S
MANHATTAN      CLOUDY    78  70  76 CALM      29.82R
OLATHE IND     CLOUDY    73  71  93 SE8       29.83S
OLATHE EXE     LGT RAIN  73  72  96 SW5       29.83S
SALINA         CLEAR     83  63  50 NW7       29.84R
TOPEKA BILLARD CLOUDY    80  70  71 CALM      29.80S
TOPEKA FORBES  CLOUDY    78  68  71 W5        29.82R
$$



USA.gov is the U.S. government's official web portal to all federal, state and local government web resources and services.